Location: Axtheid
(49.6213°N, 11.8205°E)
Time: 13:54:12
(UTC+00:00)

Cosmos 923 Rocket - Pass Details

Date: 24 January 2021
Orbit: 758 x 785 km, 74.0° (Epoch: 26 February)

Event Time Altitude Azimuth Distance (km) Brightness Sun altitude
Rises 17:27:08 0° 334° (NNW) 3,288 7.5 -14.7°
Reaches altitude 10° 17:29:33 10° 332° (NNW) 2,353 6.7 -15.1°
Maximum altitude 17:34:51 67° 251° (WSW) 847 4.4 -16.0°
Drops below altitude 10° 17:40:06 10° 169° (S) 2,324 6.5 -16.8°
Sets 17:42:28 0° 167° (SSE) 3,243 7.2 -17.2°
